Regional Weather Roundup
Issued by NWS

Home | Current Version | Previous Version | Text Only | Print | Product List | Glossary On
Versions: 1 2 3 4 5 6 7 8 9 10 11 12 13 14 15 16 17 18 19 20 21 22 23 24 25 26 27 28 29 30 31 32 33 34 35 36 37 38 39 40 41 42 43 44 45 46 47 48 49 50
000
ASUS43 KFSD 201902
RWRSD

WEATHER ROUNDUP FOR SOUTH DAKOTA
NATIONAL WEATHER SERVICE SIOUX FALLS SD
100 PM CST MON FEB 20 2017

NOTE: "FAIR" INDICATES FEW OR NO CLOUDS BELOW 12,000 FEET WITH NO
SIGNIFICANT WEATHER AND/OR OBSTRUCTIONS TO VISIBILITY.


SDZ001>005-009-010-012>017-202000-
NORTHWEST AND NORTH CENTRAL SOUTH DAKOTA

CITY           SKY/WX    TMP DP  RH WIND       PRES   REMARKS
BUFFALO          N/A     56  22  26 W26       29.72F
FAITH            N/A     57  30  35 NW23G30   29.76F
MOBRIDGE       SUNNY     47  38  71 NW14      29.71S
$$

SDZ012>016-024>037-041>051-057-063-072>074-202000-
SOUTHWEST AND SOUTH CENTRAL SOUTH DAKOTA

CITY           SKY/WX    TMP DP  RH WIND       PRES   REMARKS
RAPID CTY ARPT SUNNY     59  17  19 NW9G22    29.82S
PIERRE         SUNNY     55  40  56 NW20      29.75S
CUSTER         SUNNY     48  16  27 W12G18    29.87R
ELLSWORTH AFB  SUNNY     59  19  21 N15G21    29.81
PHILIP         SUNNY     61  28  28 NW23G30   29.79F
PINE RIDGE     SUNNY     57  30  35 W12       29.87S
SPEARFISH      FAIR      54  19  26 W21       29.83S
WINNER         FAIR      58  42  55 NW24G30   29.79R
$$

SDZ004>011-016>023-039-040-202000-
NORTHEAST SOUTH DAKOTA

CITY           SKY/WX    TMP DP  RH WIND       PRES   REMARKS
ABERDEEN       PTSUNNY   47  38  71 NW17      29.66F
WATERTOWN      CLOUDY    51  50  96 SW12      29.60F FOG
BROOKINGS      CLOUDY    54  52  93 SW10      29.61F FOG
SISSETON         N/A     53  52  96 VRB3      29.59F
$$

SDZ017-020-022-023-036>040-048>070-202000-
SOUTHEAST SOUTH DAKOTA

CITY           SKY/WX    TMP DP  RH WIND       PRES   REMARKS
SIOUX FALLS    CLOUDY    55  50  83 W15G22    29.65F
HURON          MOSUNNY   53  43  68 N23G33    29.66F
CHAMBERLAIN    MOSUNNY   54  45  72 NW18G26   29.77R
MITCHELL       CLOUDY    54  43  66 NW15      29.70R
YANKTON        CLOUDY   N/A N/A N/A W23       29.71R
$$

ABBREVIATIONS USED IN REMARKS
   TC - TEMPERATURE IN CELSIUS
  WCI - WIND CHILL INDEX
   HX - HEAT INDEX
  VSB - VISIBILITY





USA.gov is the U.S. government's official web portal to all federal, state and local government web resources and services.